When you browse on this site, cookies collect data to enhance your experience and personalize the content and advertising you see.
Visit our Privacy Policy to learn more. By continuing to use the site, you agree to this use of cookies and data.
  • In Hungary
  • List of Countries
  • For 7 days
  • Water Temperature
  • Satellite Maps
  • Weather Map
  • News
  • Weather Widgets
  • user-avatar
    Login

    Hourly Weather Ropianka

    Today, 19 December, Wednesday

    Time Temperature Precipitation Wind Pressure Humidity
    00:00 -4°C° 0 mm 1 mps 727 mmHg 94%
    01:00 -4°C° 0 mm 1 mps 727 mmHg 94%
    02:00 -6°C° 0 mm 1 mps 727 mmHg 93%
    03:00 -6°C° 0 mm 1 mps 727 mmHg 93%
    04:00 -6°C° 0 mm 1 mps 727 mmHg 93%
    05:00 -6°C° 0 mm 1 mps 727 mmHg 92%
    06:00 -6°C° 0 mm 1 mps 727 mmHg 91%
    07:00 -6°C° 0 mm 1 mps 726 mmHg 91%
    08:00 -4°C° 0 mm 1 mps 727 mmHg 87%
    09:00 -5°C° 0 mm 2 mps 727 mmHg 84%
    10:00 -4°C° 0 mm 2 mps 727 mmHg 81%
    11:00 -4°C° 0 mm 2 mps 726 mmHg 80%
    12:00 -3°C° 0 mm 2 mps 726 mmHg 79%
    13:00 -3°C° 0 mm 2 mps 726 mmHg 78%
    14:00 -4°C° 0 mm 2 mps 726 mmHg 82%
    15:00 -6°C° 0 mm 3 mps 725 mmHg 86%
    16:00 -7°C° 0 mm 3 mps 725 mmHg 90%
    17:00 -7°C° 0 mm 3 mps 725 mmHg 90%
    18:00 -7°C° 0 mm 3 mps 725 mmHg 90%
    19:00 -8°C° 0 mm 3 mps 725 mmHg 90%
    20:00 -8°C° 0 mm 3 mps 724 mmHg 89%
    21:00 -8°C° 0 mm 3 mps 724 mmHg 89%
    22:00 -8°C° 0 mm 3 mps 724 mmHg 88%
    23:00 -8°C° 0 mm 3 mps 724 mmHg 87%

    Tomorrow, 20 December, Thursday

    Time Temperature Precipitation Wind Pressure Humidity
    00:00 -8°C° 0 mm 3 mps 724 mmHg 86%
    01:00 -8°C° 0 mm 3 mps 724 mmHg 86%
    02:00 -8°C° 0 mm 3 mps 724 mmHg 85%
    03:00 -7°C° 0 mm 3 mps 723 mmHg 85%
    04:00 -7°C° 0 mm 3 mps 723 mmHg 85%
    05:00 -7°C° 0 mm 3 mps 723 mmHg 84%
    06:00 -7°C° 0 mm 3 mps 723 mmHg 84%
    07:00 -7°C° 0 mm 3 mps 723 mmHg 84%
    08:00 -7°C° 0 mm 4 mps 723 mmHg 83%
    09:00 -5°C° 0 mm 4 mps 723 mmHg 81%
    10:00 -5°C° 0 mm 4 mps 723 mmHg 79%
    11:00 -4°C° 0 mm 4 mps 723 mmHg 80%
    12:00 -4°C° 0 mm 4 mps 723 mmHg 80%
    13:00 -4°C° 0 mm 4 mps 722 mmHg 81%
    14:00 -4°C° 0.3 mm 4 mps 722 mmHg 84%
    15:00 -5°C° 0.3 mm 3 mps 722 mmHg 87%
    16:00 -5°C° 0.3 mm 3 mps 722 mmHg 90%
    17:00 -5°C° 0.1 mm 3 mps 722 mmHg 91%
    18:00 -5°C° 0.1 mm 3 mps 723 mmHg 91%
    19:00 -5°C° 0.1 mm 3 mps 723 mmHg 91%
    20:00 -5°C° 0.1 mm 3 mps 723 mmHg 91%
    21:00 -5°C° 0.1 mm 3 mps 723 mmHg 91%
    22:00 -5°C° 0.1 mm 3 mps 723 mmHg 91%
    23:00 -5°C° 0.1 mm 3 mps 723 mmHg 91%

    Day after tomorrow, 21 December, Friday

    Time Temperature Precipitation Wind Pressure Humidity
    00:00 -5°C° 0.1 mm 3 mps 723 mmHg 91%
    01:00 -4°C° 0.1 mm 3 mps 723 mmHg 92%
    02:00 -5°C° 0.2 mm 3 mps 723 mmHg 92%
    03:00 -5°C° 0.2 mm 3 mps 723 mmHg 92%
    04:00 -5°C° 0.2 mm 3 mps 723 mmHg 92%
    05:00 -5°C° 0 mm 3 mps 723 mmHg 92%
    06:00 -5°C° 0 mm 3 mps 723 mmHg 92%
    07:00 -4°C° 0 mm 3 mps 723 mmHg 92%
    08:00 -4°C° 0 mm 4 mps 723 mmHg 91%
    09:00 -4°C° 0 mm 4 mps 723 mmHg 90%
    10:00 -3°C° 0 mm 4 mps 723 mmHg 89%
    11:00 -3°C° 0.1 mm 4 mps 722 mmHg 89%
    12:00 -3°C° 0.1 mm 4 mps 722 mmHg 89%
    13:00 -3°C° 0.1 mm 4 mps 722 mmHg 89%
    14:00 -3°C° 0.1 mm 4 mps 721 mmHg 89%
    15:00 -3°C° 0.1 mm 4 mps 721 mmHg 90%
    16:00 -4°C° 0.1 mm 5 mps 721 mmHg 90%
    17:00 -4°C° 0.2 mm 5 mps 720 mmHg 90%
    18:00 -4°C° 0.2 mm 5 mps 720 mmHg 90%
    19:00 -4°C° 0.2 mm 6 mps 719 mmHg 90%
    20:00 -4°C° 0.5 mm 6 mps 719 mmHg 90%
    21:00 -4°C° 0.5 mm 6 mps 718 mmHg 89%
    22:00 -4°C° 0.5 mm 6 mps 717 mmHg 89%
    23:00 -4°C° 0.6 mm 6 mps 717 mmHg 89%

    22 December, Saturday

    Time Temperature Precipitation Wind Pressure Humidity
    00:00 -4°C° 0.6 mm 6 mps 716 mmHg 90%
    01:00 -4°C° 0.6 mm 5 mps 716 mmHg 90%
    02:00 -2°C° 0.1 mm 5 mps 716 mmHg 91%
    03:00 -2°C° 0.1 mm 5 mps 715 mmHg 91%
    04:00 -2°C° 0.1 mm 4 mps 715 mmHg 92%
    05:00 -2°C° 0.2 mm 4 mps 715 mmHg 93%
    06:00 -1°C° 0.2 mm 4 mps 716 mmHg 93%
    07:00 0°C° 0.2 mm 3 mps 716 mmHg 94%
    08:00 0°C° 0 mm 3 mps 716 mmHg 94%
    09:00 0°C° 0 mm 3 mps 716 mmHg 94%
    10:00 +1°C° 0 mm 3 mps 717 mmHg 94%
    11:00 +1°C° 0 mm 3 mps 716 mmHg 94%
    12:00 +1°C° 0 mm 3 mps 716 mmHg 94%
    13:00 +2°C° 0 mm 3 mps 716 mmHg 94%
    14:00 +1°C° 0 mm 3 mps 716 mmHg 94%
    15:00 +1°C° 0 mm 3 mps 715 mmHg 94%
    16:00 0°C° 0 mm 4 mps 715 mmHg 94%
    17:00 0°C° 0.8 mm 4 mps 715 mmHg 94%
    18:00 0°C° 0.8 mm 4 mps 714 mmHg 94%
    19:00 0°C° 0.8 mm 4 mps 714 mmHg 94%
    20:00 0°C° 0.3 mm 4 mps 714 mmHg 93%
    21:00 0°C° 0.3 mm 4 mps 714 mmHg 92%
    22:00 +1°C° 0.3 mm 4 mps 714 mmHg 90%
    23:00 0°C° 0 mm 4 mps 714 mmHg 90%

    23 December, Sunday

    Time Temperature Precipitation Wind Pressure Humidity
    00:00 0°C° 0 mm 4 mps 715 mmHg 90%
    01:00 0°C° 0 mm 4 mps 715 mmHg 90%
    02:00 0°C° 0.1 mm 4 mps 715 mmHg 90%
    03:00 0°C° 0.1 mm 4 mps 716 mmHg 90%
    04:00 0°C° 0.1 mm 4 mps 716 mmHg 90%
    05:00 0°C° 0 mm 4 mps 716 mmHg 90%
    06:00 0°C° 0 mm 4 mps 716 mmHg 90%
    07:00 -1°C° 0 mm 4 mps 717 mmHg 90%
    08:00 0°C° 0.1 mm 4 mps 717 mmHg 89%
    09:00 0°C° 0.1 mm 4 mps 718 mmHg 88%
    10:00 +1°C° 0.1 mm 4 mps 718 mmHg 88%
    11:00 +1°C° 0.1 mm 4 mps 718 mmHg 87%
    12:00 +1°C° 0.1 mm 4 mps 718 mmHg 87%
    13:00 +1°C° 0.1 mm 4 mps 718 mmHg 87%
    14:00 +1°C° 0.1 mm 4 mps 718 mmHg 88%
    15:00 0°C° 0.1 mm 4 mps 718 mmHg 88%
    16:00 +1°C° 0.1 mm 3 mps 718 mmHg 89%
    17:00 +1°C° 0 mm 3 mps 719 mmHg 89%
    18:00 +1°C° 0 mm 3 mps 719 mmHg 89%
    19:00 +1°C° 0 mm 3 mps 719 mmHg 89%
    20:00 +1°C° 0 mm 3 mps 719 mmHg 89%
    21:00 0°C° 0 mm 3 mps 719 mmHg 89%
    22:00 0°C° 0 mm 3 mps 719 mmHg 88%
    23:00 0°C° 0 mm 3 mps 719 mmHg 89%

    24 December, Monday

    Time Temperature Precipitation Wind Pressure Humidity
    00:00 0°C° 0 mm 3 mps 719 mmHg 89%
    01:00 -1°C° 0 mm 3 mps 719 mmHg 89%
    02:00 -1°C° 0 mm 3 mps 719 mmHg 89%
    03:00 -1°C° 0 mm 3 mps 719 mmHg 89%
    04:00 -1°C° 0 mm 3 mps 719 mmHg 88%
    05:00 -1°C° 0.1 mm 4 mps 719 mmHg 88%
    06:00 -1°C° 0.1 mm 4 mps 719 mmHg 89%
    07:00 -1°C° 0.1 mm 4 mps 719 mmHg 89%
    08:00 -1°C° 0.1 mm 4 mps 719 mmHg 88%
    09:00 -1°C° 0.1 mm 4 mps 720 mmHg 88%
    10:00 -1°C° 0.1 mm 4 mps 720 mmHg 88%
    11:00 +1°C° 0.1 mm 3 mps 720 mmHg 87%
    12:00 +1°C° 0.1 mm 3 mps 720 mmHg 86%
    13:00 +1°C° 0.1 mm 3 mps 721 mmHg 85%
    14:00 +1°C° 0 mm 2 mps 721 mmHg 87%
    15:00 +1°C° 0 mm 2 mps 721 mmHg 89%
    16:00 +1°C° 0 mm 1 mps 721 mmHg 91%
    17:00 +1°C° 0.1 mm 1 mps 721 mmHg 91%
    18:00 +1°C° 0.1 mm 1 mps 721 mmHg 92%
    19:00 -1°C° 0.1 mm 2 mps 721 mmHg 93%
    20:00 -2°C° 0 mm 2 mps 721 mmHg 92%
    21:00 -2°C° 0 mm 2 mps 722 mmHg 92%
    22:00 -2°C° 0 mm 2 mps 722 mmHg 91%
    23:00 -2°C° 0 mm 2 mps 722 mmHg 91%
    Show more